Location: Rodson Ranch
(38.7188°N, 119.3202°W)
Time: 17:27:53
(UTC+00:00)

Cosmos 2369 - Pass Details

Date: 29 October 2020
Orbit: 840 x 855 km, 71.0° (Epoch: 23 November)

Event Time Altitude Azimuth Distance (km) Brightness Sun altitude
Exits shadow 12:08:19 23° 347° (NNW) 1,710 5.2 -26.5°
Maximum altitude 12:11:52 68° 66° (ENE) 902 3.9 -25.8°
Drops below altitude 10° 12:17:28 10° 149° (SSE) 2,449 6.4 -24.7°
Sets 12:19:54 0° 152° (SSE) 3,379 7.2 -24.3°
